GW5652 Weather Reports


time (UTC)temp
F
wind
direction
speed
knots
gust
knots
rain 1hr
in
rain 24hr
in
rain mn
in
humidity
%
barometer
mb
20260505170428 56 156 1.7 2.6 0.00 0.00 0.00 81 1017.2
20260505165924 56 86 1.7 2.6 0.00 0.00 0.00 81 1017.1
20260505165420 56 71 0.9 2.6 0.00 0.00 0.00 82 1017.0
20260505164915 55 132 1.7 3.5 0.00 0.00 0.00 83 1016.9
20260505164412 56 143 1.7 2.6 0.00 0.00 0.00 82 1016.9
20260505163910 55 134 0.9 1.7 0.00 0.00 0.00 83 1016.9
20260505163409 55 149 3.5 4.3 0.00 0.00 0.00 83 1017.0
20260505162908 55 114 2.6 5.2 0.00 0.00 0.00 84 1017.1
20260505162403 55 118 2.6 2.6 0.00 0.00 0.00 84 1016.8
20260505161900 55 129 1.7 3.5 0.00 0.00 0.00 84 1016.9
20260505161357 55 89 1.7 4.3 0.00 0.00 0.00 84 1016.9
20260505160854 55 69 2.6 3.5 0.00 0.00 0.00 84 1016.9
20260505160353 54 112 3.5 4.3 0.00 0.00 0.00 84 1017.1
20260505153331 53 157 2.6 3.5 0.00 0.00 0.00 87 1016.8
20260505152828 53 157 3.5 4.3 0.00 0.00 0.00 88 1016.8
20260505152325 53 129 1.7 4.3 0.00 0.00 0.00 88 1016.7
20260505151825 53 148 1.7 4.3 0.00 0.00 0.00 88 1016.6
20260505151322 52 135 2.6 3.5 0.00 0.00 0.00 89 1016.8
20260505150819 53 152 1.7 3.5 0.00 0.00 0.00 90 1016.7
20260505150316 52 108 3.5 5.2 0.00 0.00 0.00 90 1016.5
20260505140241 51 107 2.6 3.5 0.00 0.00 0.00 91 1016.2
20260505130204 52 284 2.6 4.3 0.00 0.00 0.00 86 1015.8
20260505124654 52 247 3.5 5.2 0.00 0.00 0.00 87 1015.6
20260505124151 52 296 1.7 2.6 0.00 0.00 0.00 87 1015.7
20260505123647 52 273 2.6 3.5 0.00 0.00 0.00 87 1015.4
20260505123144 52 278 1.7 4.3 0.00 0.00 0.00 87 1015.7
20260505122640 51 238 1.7 3.5 0.00 0.00 0.00 87 1015.6
20260505122138 51 247 2.6 3.5 0.00 0.00 0.00 88 1015.4
20260505121634 51 292 0.0 2.6 0.00 0.00 0.00 88 1015.5
20260505121131 51 217 1.7 4.3 0.00 0.00 0.00 88 1015.5
20260505120627 51 210 0.9 2.6 0.00 0.00 0.00 89 1015.5
20260505120124 51 291 0.9 2.6 0.00 0.00 0.00 90 1015.5
20260505115623 51 162 1.7 2.6 0.00 0.00 0.00 89 1015.5
20260505115121 51 196 0.9 2.6 0.00 0.00 0.00 89 1015.6
20260505114618 51 187 0.0 2.6 0.00 0.00 0.00 89 1015.5
20260505114114 51 253 0.9 2.6 0.00 0.00 0.00 89 1015.6
20260505113611 51 89 0.0 1.7 0.00 0.00 0.00 89 1015.6
20260505113108 51 200 0.0 1.7 0.00 0.00 0.00 89 1015.3
20260505112604 51 186 0.0 1.7 0.00 0.00 0.00 89 1015.5
20260505112103 51 248 1.7 2.6 0.00 0.00 0.00 89 1015.4
20260505111601 51 184 0.0 1.7 0.00 0.00 0.00 89 1015.5
20260505111057 51 136 1.7 2.6 0.00 0.00 0.00 89 1015.2
20260505110554 51 196 0.9 2.6 0.00 0.00 0.00 89 1015.2
20260505102027 51 256 1.7 6.1 0.00 0.00 0.00 88 1015.0
20260505101525 51 260 2.6 4.3 0.00 0.00 0.00 89 1014.8
20260505101021 51 268 2.6 3.5 0.00 0.00 0.00 90 1015.1
20260505100519 50 244 0.0 2.6 0.00 0.00 0.00 91 1015.1
20260505100015 50 164 0.0 1.7 0.00 0.00 0.00 91 1015.2
20260505095511 50 137 0.9 2.6 0.00 0.00 0.00 92 1015.1
20260505095008 50 207 0.9 2.6 0.00 0.00 0.00 93 1015.2
20260505094504 50 235 0.0 2.6 0.00 0.00 0.00 93 1015.0
20260505094000 49 183 2.6 4.3 0.00 0.00 0.00 93 1015.1
20260505093457 49 194 2.6 3.5 0.00 0.00 0.00 93 1015.0
20260505092954 49 189 2.6 4.3 0.00 0.00 0.00 93 1015.1
20260505092452 49 190 2.6 3.5 0.00 0.00 0.00 93 1015.1
20260505091949 49 206 1.7 4.3 0.00 0.00 0.00 93 1014.9
20260505091447 49 191 0.0 3.5 0.00 0.00 0.00 93 1015.1
20260505090945 49 191 2.6 3.5 0.00 0.00 0.00 93 1014.9
20260505090443 49 240 0.9 2.6 0.00 0.00 0.00 92 1014.7
20260505085940 49 260 0.0 1.7 0.00 0.00 0.00 92 1014.9
20260505085438 50 173 1.7 4.3 0.00 0.00 0.00 91 1015.0
20260505084936 50 171 2.6 3.5 0.00 0.00 0.00 91 1014.9
20260505084434 50 164 1.7 4.3 0.00 0.00 0.00 90 1014.7
20260505083931 50 177 1.7 3.5 0.00 0.00 0.00 90 1014.7
20260505083428 50 186 1.7 2.6 0.00 0.00 0.00 90 1014.8
20260505082924 50 183 1.7 3.5 0.00 0.00 0.00 90 1014.6
20260505082420 50 147 1.7 3.5 0.00 0.00 0.00 90 1014.7
20260505081918 51 144 0.9 2.6 0.00 0.00 0.00 89 1014.7
20260505081415 51 167 1.7 2.6 0.00 0.00 0.00 89 1014.7
20260505080911 51 182 0.9 3.5 0.00 0.00 0.00 89 1014.6
20260505080407 51 178 0.9 2.6 0.00 0.00 0.00 89 1014.5
20260505075902 51 167 0.9 3.5 0.00 0.00 0.00 89 1014.4
20260505075359 51 230 3.5 5.2 0.00 0.00 0.00 88 1014.8
20260505074857 51 259 1.7 4.3 0.00 0.00 0.00 88 1014.5
20260505074354 51 180 0.0 0.9 0.00 0.00 0.00 89 1014.4
20260505073851 51 220 0.0 1.7 0.00 0.00 0.00 88 1014.5
20260505073349 51 241 0.9 3.5 0.00 0.00 0.00 88 1014.5
20260505072846 52 316 1.7 3.5 0.00 0.00 0.00 88 1014.4
20260505072342 51 217 0.0 1.7 0.00 0.00 0.00 88 1014.5
20260505071838 51 290 0.9 4.3 0.00 0.00 0.00 88 1014.3
20260505071334 52 167 0.0 4.3 0.00 0.00 0.00 88 1014.3
20260505070833 52 260 3.5 4.3 0.00 0.00 0.00 88 1014.2
20260505070329 52 224 2.6 7.0 0.00 0.00 0.00 88 1014.2
20260505065824 51 260 2.6 5.2 0.00 0.00 0.00 88 1014.3
20260505065321 52 214 0.9 6.1 0.00 0.00 0.00 88 1014.3
20260505064818 52 275 2.6 8.7 0.00 0.00 0.00 87 1014.2
20260505064315 52 253 3.5 5.2 0.00 0.00 0.00 87 1014.2
20260505063814 52 282 6.1 9.6 0.00 0.00 0.00 87 1014.2
20260505063309 52 260 4.3 8.7 0.00 0.00 0.00 87 1014.0
20260505062806 52 254 7.0 10.4 0.00 0.00 0.00 87 1014.2
20260505062304 52 283 2.6 11.3 0.00 0.00 0.00 87 1014.3
20260505061800 52 285 4.3 10.4 0.00 0.00 0.00 87 1014.2
20260505061258 52 266 4.3 8.7 0.00 0.00 0.00 87 1014.1
20260505060755 52 281 6.1 8.7 0.00 0.00 0.00 87 1014.2
20260505060252 52 261 1.7 6.1 0.00 0.00 0.00 87 1014.1
20260505055747 52 265 5.2 11.3 0.00 0.00 0.00 87 1014.1
20260505055244 52 296 7.0 10.4 0.00 0.00 0.00 87 1014.1
20260505054742 52 261 6.1 9.6 0.00 0.00 0.00 87 1014.1
20260505054239 52 306 5.2 12.2 0.00 0.00 0.00 87 1014.0
20260505053737 52 308 3.5 8.7 0.00 0.00 0.00 86 1014.3
20260505053233 52 263 7.8 8.7 0.00 0.00 0.00 87 1013.9
20260505052731 52 275 6.1 9.6 0.00 0.00 0.00 87 1014.0
20260505052227 53 300 3.5 11.3 0.00 0.00 0.00 86 1014.2
20260505051725 53 271 7.0 10.4 0.00 0.00 0.00 86 1013.8
20260505051223 53 259 10.4 11.3 0.00 0.00 0.00 86 1014.1
20260505050720 53 269 10.4 10.4 0.00 0.00 0.00 86 1014.0
20260505050219 53 261 9.6 11.3 0.00 0.00 0.00 86 1013.9
20260505041648 53 301 5.2 13.0 0.00 0.00 0.00 85 1013.2
20260505041146 53 320 9.6 11.3 0.00 0.00 0.00 85 1013.5
20260505040643 53 321 6.1 13.9 0.00 0.00 0.00 85 1013.3
20260505040140 53 306 9.6 24.3 0.00 0.00 0.00 84 1012.9
20260505035636 54 283 8.7 16.5 0.00 0.00 0.00 84 1012.9
20260505035132 54 313 8.7 20.9 0.00 0.00 0.00 84 1013.1
20260505034629 54 280 6.1 15.6 0.00 0.00 0.00 84 1012.7
20260505034126 54 273 18.2 18.2 0.00 0.00 0.00 83 1012.7
20260505033622 54 280 10.4 12.2 0.00 0.00 0.00 83 1012.9
20260505033121 54 298 9.6 19.1 0.00 0.00 0.00 82 1012.9
20260505032619 55 313 11.3 19.1 0.00 0.00 0.00 82 1012.7
20260505032115 55 300 7.8 16.5 0.00 0.00 0.00 81 1012.8
20260505031612 55 279 7.0 17.4 0.00 0.00 0.00 81 1012.6
20260505031108 55 305 7.8 12.2 0.00 0.00 0.00 81 1012.3
20260505030605 56 290 7.8 11.3 0.00 0.00 0.00 80 1012.7
20260505025557 57 313 11.3 19.1 0.00 0.00 0.00 79 1012.5
20260505025056 57 287 6.1 13.0 0.00 0.00 0.00 79 1012.6
20260505024553 57 272 6.1 16.5 0.00 0.00 0.00 78 1012.4
20260505024050 58 263 8.7 17.4 0.00 0.00 0.00 77 1012.2
20260505023547 58 300 10.4 21.7 0.00 0.00 0.00 75 1012.3
20260505023044 59 304 12.2 19.1 0.00 0.00 0.00 74 1012.3
20260505022542 59 311 17.4 19.1 0.00 0.00 0.00 74 1012.1
20260505022039 59 295 8.7 14.8 0.00 0.00 0.00 73 1012.4
20260505021535 60 259 8.7 14.8 0.00 0.00 0.00 72 1012.2
20260505021027 60 310 7.8 19.1 0.00 0.00 0.00 72 1012.5
20260505020526 61 262 6.1 20.9 0.00 0.00 0.00 71 1012.4
20260505020024 61 299 4.3 15.6 0.00 0.00 0.00 71 1012.4
20260505015521 61 287 4.3 12.2 0.00 0.00 0.00 71 1012.3
20260505015017 62 258 13.0 15.6 0.00 0.00 0.00 71 1012.1
20260505014514 62 312 10.4 16.5 0.00 0.00 0.00 69 1012.2
20260505014012 63 285 7.0 12.2 0.00 0.00 0.00 70 1012.4
20260505013509 64 271 5.2 13.0 0.00 0.00 0.00 68 1012.3
20260505013006 64 319 7.8 10.4 0.00 0.00 0.00 67 1012.2
20260505012504 64 273 6.1 14.8 0.00 0.00 0.00 67 1012.4
20260505012000 64 295 6.1 13.0 0.00 0.00 0.00 68 1012.2
20260505011456 64 293 7.8 17.4 0.00 0.00 0.00 67 1012.3
20260505010953 64 302 5.2 16.5 0.00 0.00 0.00 67 1012.2
20260505010449 65 312 7.0 11.3 0.00 0.00 0.00 66 1012.4
20260505005945 64 286 5.2 20.0 0.00 0.00 0.00 65 1012.4
20260505005442 65 285 9.6 22.6 0.00 0.00 0.00 66 1012.8
20260505004940 66 313 4.3 11.3 0.00 0.00 0.00 66 1012.3
20260505004436 65 303 7.8 19.1 0.00 0.00 0.00 66 1012.7
20260505003933 66 283 7.0 16.5 0.00 0.00 0.00 67 1012.3
20260505003430 66 296 6.1 15.6 0.00 0.00 0.00 66 1012.5
20260505002926 66 310 9.6 22.6 0.00 0.00 0.00 65 1012.3
20260505002423 67 302 9.6 14.8 0.00 0.00 0.00 64 1012.4
20260505001921 67 281 7.0 13.0 0.00 0.00 0.00 66 1012.3
20260505001419 67 281 6.1 11.3 0.00 0.00 0.00 66 1012.3
20260505000916 68 290 5.2 13.9 0.00 0.00 0.00 64 1012.3
20260505000414 68 315 14.8 14.8 0.00 0.00 0.00 63 1012.4
20260504235910 68 308 5.2 13.0 0.00 0.00 0.00 64 1012.4
20260504235407 68 278 4.3 12.2 0.00 0.00 0.00 63 1012.4
20260504234903 68 291 12.2 14.8 0.00 0.00 0.00 63 1012.7
20260504234401 69 294 5.2 11.3 0.00 0.00 0.00 63 1012.5
20260504233857 69 310 8.7 13.0 0.00 0.00 0.00 62 1012.3
20260504233353 69 297 3.5 9.6 0.00 0.00 0.00 63 1012.5
20260504232850 69 269 6.1 12.2 0.00 0.00 0.00 62 1012.5
20260504232347 69 290 4.3 11.3 0.00 0.00 0.00 62 1012.6
20260504231844 70 292 4.3 12.2 0.00 0.00 0.00 64 1012.5
20260504231340 69 279 7.0 10.4 0.00 0.00 0.00 62 1012.4
20260504230836 70 303 3.5 8.7 0.00 0.00 0.00 63 1012.6
20260504230334 70 334 2.6 8.7 0.00 0.00 0.00 61 1012.5
20260504225833 71 297 3.5 4.3 0.00 0.00 0.00 59 1012.5
20260504225329 71 339 0.9 5.2 0.00 0.00 0.00 63 1012.5
20260504224827 71 233 2.6 8.7 0.00 0.00 0.00 64 1012.8
20260504224323 71 111 6.1 12.2 0.00 0.00 0.00 65 1012.6
20260504223820 71 217 2.6 4.3 0.00 0.00 0.00 64 1012.6
20260504223315 70 154 6.1 10.4 0.00 0.00 0.00 65 1012.8
20260504222812 70 162 8.7 8.7 0.00 0.00 0.00 65 1012.9
20260504222309 69 160 9.6 10.4 0.00 0.00 0.00 67 1012.8
20260504221808 69 115 4.3 7.8 0.00 0.00 0.00 66 1012.7
20260504221304 69 155 6.1 9.6 0.00 0.00 0.00 67 1012.9
20260504220801 69 158 8.7 9.6 0.00 0.00 0.00 69 1012.9
20260504220258 68 156 4.3 10.4 0.00 0.00 0.00 68 1013.0
20260504215755 68 154 4.3 12.2 0.00 0.00 0.00 68 1013.1
20260504215251 69 155 6.1 12.2 0.00 0.00 0.00 67 1013.1
20260504214747 68 160 7.8 10.4 0.00 0.00 0.00 69 1013.0
20260504214244 69 141 4.3 11.3 0.00 0.00 0.00 69 1013.1
20260504213741 68 147 4.3 12.2 0.00 0.00 0.00 68 1013.2
20260504213237 69 160 9.6 9.6 0.00 0.00 0.00 69 1013.1
20260504212734 68 158 10.4 10.4 0.00 0.00 0.00 68 1013.2
20260504212231 68 152 6.1 12.2 0.00 0.00 0.00 68 1013.3
20260504211728 66 165 8.7 11.3 0.00 0.00 0.00 70 1013.3
20260504211224 67 113 6.1 10.4 0.00 0.00 0.00 69 1013.4
20260504210722 67 157 7.0 10.4 0.00 0.00 0.00 70 1013.3
20260504210219 66 160 10.4 11.3 0.00 0.00 0.00 69 1013.6
20260504205716 66 142 5.2 12.2 0.00 0.00 0.00 70 1013.4
20260504205214 67 170 9.6 11.3 0.00 0.00 0.00 69 1013.5
20260504204712 67 155 5.2 8.7 0.00 0.00 0.00 70 1013.7
20260504204210 66 146 7.8 9.6 0.00 0.00 0.00 70 1013.8
20260504203709 66 150 6.1 10.4 0.00 0.00 0.00 70 1013.9
20260504203206 66 157 4.3 11.3 0.00 0.00 0.00 72 1013.9
20260504202706 65 163 9.6 13.0 0.00 0.00 0.00 71 1013.8
20260504202203 65 157 4.3 8.7 0.00 0.00 0.00 72 1014.0
20260504201700 66 147 3.5 12.2 0.00 0.00 0.00 69 1013.9
20260504201157 65 160 3.5 9.6 0.00 0.00 0.00 72 1014.0
20260504200655 66 163 11.3 11.3 0.00 0.00 0.00 70 1013.9
20260504200151 66 152 6.1 10.4 0.00 0.00 0.00 71 1014.0
20260504195647 65 117 6.1 9.6 0.00 0.00 0.00 71 1014.2
20260504195143 64 164 2.6 5.2 0.00 0.00 0.00 70 1013.8
20260504194640 65 155 4.3 8.7 0.00 0.00 0.00 71 1013.9
20260504194136 67 141 7.8 7.8 0.00 0.00 0.00 67 1014.1
20260504193633 64 155 2.6 8.7 0.00 0.00 0.00 71 1014.1
20260504193131 65 51 4.3 5.2 0.00 0.00 0.00 70 1014.2
20260504192629 64 153 3.5 6.1 0.00 0.00 0.00 72 1014.1
20260504192126 65 149 10.4 10.4 0.00 0.00 0.00 70 1014.0
20260504191625 65 218 3.5 7.8 0.00 0.00 0.00 70 1014.2
20260504191121 65 112 0.0 1.7 0.00 0.00 0.00 70 1014.0
20260504190617 64 94 5.2 9.6 0.00 0.00 0.00 74 1014.2
20260504190114 63 160 7.0 10.4 0.00 0.00 0.00 72 1014.1
20260504185610 64 158 9.6 9.6 0.00 0.00 0.00 72 1014.2
20260504185107 63 134 2.6 8.7 0.00 0.00 0.00 72 1014.3
20260504184602 63 117 4.3 9.6 0.00 0.00 0.00 71 1014.3
20260504184057 64 113 6.1 8.7 0.00 0.00 0.00 72 1014.4
20260504183555 62 37 0.0 7.0 0.00 0.00 0.00 73 1014.6
20260504183053 64 104 7.8 7.8 0.00 0.00 0.00 73 1014.3
20260504182550 62 146 6.1 10.4 0.00 0.00 0.00 75 1014.4
20260504182047 62 155 5.2 11.3 0.00 0.00 0.00 75 1014.4
20260504181544 61 137 4.3 8.7 0.00 0.00 0.00 76 1014.4
20260504181042 62 145 2.6 7.8 0.00 0.00 0.00 76 1014.4
20260504180541 62 115 4.3 7.0 0.00 0.00 0.00 73 1014.4
20260504180039 61 147 0.0 3.5 0.00 0.00 0.00 75 1014.4
20260504175536 59 273 1.7 3.5 0.00 0.00 0.00 79 1014.2
20260504175033 59 327 1.7 3.5 0.00 0.00 0.00 78 1014.4
20260504174531 59 153 2.6 4.3 0.00 0.00 0.00 79 1014.2
20260504174028 59 220 1.7 5.2 0.00 0.00 0.00 77 1014.5
20260504173524 59 109 2.6 3.5 0.00 0.00 0.00 77 1014.5
20260504173022 59 179 4.3 4.3 0.00 0.00 0.00 79 1014.5
20260504172518 59 132 0.0 3.5 0.00 0.00 0.00 79 1014.6
20260504172014 58 151 2.6 4.3 0.00 0.00 0.00 79 1014.4
20260504171512 58 149 4.3 6.1 0.00 0.00 0.00 79 1014.5
20260504171008 58 219 0.9 4.3 0.00 0.00 0.00 79 1014.2